Location: Cabeza Gorda
(40.0667°N, 4.9667°W)
Time: 19:20:56
(UTC+00:00)

Helios 1A Rocket - Pass Details

Date: 15 January 2026
Orbit: 426 x 436 km, 98.3° (Epoch: 11 February)

Event Time Altitude Azimuth Distance (km) Brightness Sun altitude
Rises 05:48:05 0° 148° (SSE) 2,439 6.8 -21.1°
Reaches altitude 10° 05:50:12 10° 139° (SE) 1,573 5.9 -20.7°
Maximum altitude 05:53:18 35° 72° (ENE) 749 4.0 -20.1°
Drops below altitude 10° 05:56:25 10° 5° (N) 1,585 5.1 -19.5°
Enters shadow 05:56:40 - 4° (N) 1,684 5.2 -19.4°
